Weather History for Key West NAF, FL

Change the Weather History Date:

Thursday, January 24, 2013

  Actual Average Record
Temperature  
Mean Temperature 68 °F -  
Max Temperature 73 °F 75 °F 84 °F (1997)
Min Temperature 64 °F 64 °F 44 °F (2003)
Cooling Degree Days 4    
Growing Degree Days 18 (Base 50)    
Moisture  
Dew Point 57 °F    
Average Humidity 66    
Maximum Humidity 78    
Minimum Humidity 53    
Precipitation  
Precipitation 0.00 in - - ()
Sea Level Pressure  
Sea Level Pressure 30.23 in    
Wind  
Wind Speed 10 mph (NE)    
Max Wind Speed 15 mph    
Max Gust Speed 23 mph    
Visibility 10 miles    
Events      
Averages and records for this station are not official NWS values.
T = Trace of Precipitation, MM = Missing Value Source: NWS Daily Summary

Daily Weather History Graph

Daily Weather History Graph

Search for Another Location

Airport:

Trip Planner

Search our weather history database for the weather conditions in past years. The results will help you decide how hot, cold, wet, or windy it might be!

Date:

Astronomy

Jan. 24, 2013 Rise Set
Actual Time 7:11 AM EST 6:06 PM EST
Civil Twilight 6:47 AM EST 6:30 PM EST
Nautical Twilight 6:19 AM EST 6:58 PM EST
Astronomical Twilight 5:52 AM EST 7:25 PM EST
Moon 4:10 PM EST (1/24) 5:04 AM EST (1/24)
Length of Visible Light 11h 43m
Length of Day
10h 55m
Waxing Gibbous, 94% of the Moon is Illuminated
Jan 24
Waxing Gibbous
Jan 26
Full
Feb 3
Last Quarter
Feb 10
New
Feb 17
First Quarter

Hourly Weather History & Observations

Time (EST) Temp. Dew Point Humidity Pressure Visibility Wind Dir Wind Speed Gust Speed Precip Events Conditions
12:53 AM 66.9 °F 57.0 °F 70% 30.23 in 10.0 mi NE 8.1 mph - N/A   Clear
1:53 AM 66.9 °F 57.0 °F 70% 30.22 in 10.0 mi NE 6.9 mph - N/A   Clear
2:53 AM 66.9 °F 57.0 °F 70% 30.22 in 10.0 mi NNE 9.2 mph - N/A   Clear
3:53 AM 66.0 °F 57.9 °F 75% 30.19 in 10.0 mi NE 9.2 mph - N/A   Clear
4:53 AM 66.9 °F 57.9 °F 73% 30.20 in 10.0 mi NNE 12.7 mph - N/A   Clear
5:53 AM 66.0 °F 57.9 °F 75% 30.22 in 10.0 mi NE 11.5 mph - N/A   Clear
6:53 AM 64.9 °F 57.9 °F 78% 30.23 in 10.0 mi NE 9.2 mph - N/A   Scattered Clouds
7:53 AM 64.9 °F 57.9 °F 78% 30.24 in 10.0 mi NE 8.1 mph - N/A   Scattered Clouds
8:53 AM 69.1 °F 59.0 °F 70% 30.27 in 10.0 mi NE 15.0 mph 20.7 mph N/A   Scattered Clouds
9:53 AM 70.0 °F 59.0 °F 68% 30.29 in 10.0 mi NNE 11.5 mph 20.7 mph N/A   Partly Cloudy
10:53 AM 71.1 °F 57.9 °F 63% 30.28 in 10.0 mi NE 13.8 mph 23.0 mph N/A   Partly Cloudy
11:53 AM 73.0 °F 57.9 °F 59% 30.26 in 10.0 mi NE 11.5 mph 20.7 mph N/A   Partly Cloudy
12:53 PM 73.0 °F 57.9 °F 59% 30.24 in 10.0 mi NE 11.5 mph 19.6 mph N/A   Partly Cloudy
1:53 PM 73.9 °F 57.0 °F 55% 30.21 in 10.0 mi NNE 12.7 mph - N/A   Partly Cloudy
2:53 PM 73.9 °F 55.9 °F 53% 30.20 in 10.0 mi NNE 11.5 mph 18.4 mph N/A   Partly Cloudy
3:53 PM 73.9 °F 55.9 °F 53% 30.21 in 10.0 mi NE 11.5 mph - N/A   Partly Cloudy
4:53 PM 73.0 °F 57.0 °F 57% 30.21 in 10.0 mi NE 9.2 mph - N/A   Partly Cloudy
5:53 PM 70.0 °F 57.0 °F 63% 30.22 in 10.0 mi NNE 6.9 mph - N/A   Scattered Clouds
6:53 PM 69.1 °F 57.0 °F 65% 30.23 in 10.0 mi NNE 5.8 mph - N/A   Partly Cloudy
7:53 PM 68.0 °F 55.0 °F 63% 30.23 in 10.0 mi North 11.5 mph 17.3 mph N/A   Partly Cloudy
8:53 PM 68.0 °F 57.0 °F 68% 30.24 in 10.0 mi North 9.2 mph - N/A   Partly Cloudy
9:53 PM 69.1 °F 57.0 °F 65% 30.25 in 10.0 mi NNE 6.9 mph - N/A   Scattered Clouds
10:53 PM 66.9 °F 57.0 °F 70% 30.26 in 10.0 mi NE 6.9 mph - N/A   Clear
11:53 PM 66.9 °F 59.0 °F 76% 30.24 in 10.0 mi NE 5.8 mph - N/A   Clear